When you browse on this site, cookies collect data to enhance your experience and personalize the content and advertising you see.
Visit our Privacy Policy to learn more. By continuing to use the site, you agree to this use of cookies and data.
  • En España
  • Lista de países
  • Para 7 días
  • Temperatura del agua
  • Mapa Satelital
  • El tiempo en el mapa
  • Informadores
  • user-avatar
    Iniciar sesión

    Tiempo cada hora Madras

    Hoy, 17 Febrero, Domingo

    Tiempo Temperatura Precipitaciones Viento Presión Humedad
    00:00 +27°C° 0 mm 3 mps 759 mmHg 83%
    01:00 +27°C° 0 mm 3 mps 759 mmHg 84%
    02:00 +27°C° 0 mm 3 mps 758 mmHg 86%
    03:00 +27°C° 0 mm 3 mps 758 mmHg 86%
    04:00 +27°C° 0 mm 2 mps 758 mmHg 87%
    05:00 +27°C° 0 mm 2 mps 758 mmHg 89%
    06:00 +28°C° 0 mm 2 mps 759 mmHg 84%
    07:00 +28°C° 0 mm 2 mps 759 mmHg 80%
    08:00 +29°C° 0 mm 2 mps 759 mmHg 75%
    09:00 +31°C° 0 mm 3 mps 759 mmHg 68%
    10:00 +33°C° 0 mm 3 mps 759 mmHg 60%
    11:00 +35°C° 0 mm 3 mps 759 mmHg 50%
    12:00 +36°C° 0 mm 4 mps 758 mmHg 50%
    13:00 +36°C° 0 mm 4 mps 757 mmHg 51%
    14:00 +36°C° 0 mm 5 mps 757 mmHg 51%
    15:00 +35°C° 0 mm 5 mps 756 mmHg 57%
    16:00 +33°C° 0 mm 5 mps 756 mmHg 63%
    17:00 +32°C° 0 mm 6 mps 756 mmHg 68%
    18:00 +30°C° 0 mm 5 mps 756 mmHg 71%
    19:00 +30°C° 0 mm 5 mps 757 mmHg 74%
    20:00 +29°C° 0 mm 4 mps 757 mmHg 77%
    21:00 +29°C° 0 mm 4 mps 757 mmHg 79%
    22:00 +28°C° 0 mm 4 mps 757 mmHg 80%
    23:00 +28°C° 0 mm 3 mps 757 mmHg 82%

    Mañana, 18 Febrero, Lunes

    Tiempo Temperatura Precipitaciones Viento Presión Humedad
    00:00 +28°C° 0 mm 3 mps 757 mmHg 83%
    01:00 +28°C° 0 mm 3 mps 757 mmHg 84%
    02:00 +27°C° 0 mm 3 mps 756 mmHg 86%
    03:00 +27°C° 0 mm 3 mps 756 mmHg 87%
    04:00 +27°C° 0 mm 3 mps 756 mmHg 88%
    05:00 +27°C° 0 mm 3 mps 756 mmHg 89%
    06:00 +28°C° 0 mm 3 mps 757 mmHg 84%
    07:00 +29°C° 0 mm 3 mps 758 mmHg 79%
    08:00 +30°C° 0 mm 3 mps 758 mmHg 74%
    09:00 +31°C° 0 mm 3 mps 758 mmHg 67%
    10:00 +34°C° 0 mm 3 mps 758 mmHg 61%
    11:00 +35°C° 0 mm 4 mps 758 mmHg 55%
    12:00 +35°C° 0.1 mm 4 mps 757 mmHg 54%
    13:00 +36°C° 0.1 mm 5 mps 757 mmHg 54%
    14:00 +36°C° 0.1 mm 5 mps 756 mmHg 53%
    15:00 +35°C° 0 mm 6 mps 756 mmHg 58%
    16:00 +33°C° 0 mm 6 mps 756 mmHg 63%
    17:00 +32°C° 0 mm 6 mps 755 mmHg 68%
    18:00 +30°C° 0 mm 6 mps 756 mmHg 72%
    19:00 +30°C° 0 mm 5 mps 757 mmHg 76%
    20:00 +29°C° 0 mm 5 mps 757 mmHg 80%
    21:00 +29°C° 0 mm 5 mps 757 mmHg 81%
    22:00 +28°C° 0 mm 4 mps 758 mmHg 83%
    23:00 +28°C° 0 mm 4 mps 758 mmHg 85%

    Pasado mañana, 19 Febrero, Martes

    Tiempo Temperatura Precipitaciones Viento Presión Humedad
    00:00 +28°C° 0 mm 3 mps 757 mmHg 86%
    01:00 +28°C° 0 mm 3 mps 757 mmHg 87%
    02:00 +27°C° 0 mm 3 mps 756 mmHg 88%
    03:00 +27°C° 0 mm 3 mps 756 mmHg 88%
    04:00 +27°C° 0 mm 2 mps 757 mmHg 89%
    05:00 +27°C° 0 mm 2 mps 757 mmHg 90%
    06:00 +28°C° 0 mm 2 mps 757 mmHg 85%
    07:00 +29°C° 0 mm 3 mps 758 mmHg 81%
    08:00 +30°C° 0 mm 3 mps 759 mmHg 76%
    09:00 +31°C° 0 mm 3 mps 759 mmHg 68%
    10:00 +33°C° 0 mm 4 mps 759 mmHg 60%
    11:00 +35°C° 0 mm 4 mps 759 mmHg 53%
    12:00 +35°C° 0 mm 4 mps 758 mmHg 52%
    13:00 +35°C° 0 mm 5 mps 758 mmHg 51%
    14:00 +36°C° 0 mm 5 mps 757 mmHg 50%
    15:00 +34°C° 0 mm 5 mps 757 mmHg 56%
    16:00 +33°C° 0 mm 5 mps 757 mmHg 61%
    17:00 +32°C° 0 mm 5 mps 758 mmHg 67%
    18:00 +30°C° 0 mm 5 mps 758 mmHg 71%
    19:00 +29°C° 0 mm 4 mps 759 mmHg 75%
    20:00 +28°C° 0 mm 4 mps 760 mmHg 79%
    21:00 +28°C° 0 mm 4 mps 760 mmHg 80%
    22:00 +28°C° 0 mm 4 mps 760 mmHg 82%
    23:00 +27°C° 0 mm 4 mps 760 mmHg 83%

    20 Febrero, Miércoles

    Tiempo Temperatura Precipitaciones Viento Presión Humedad
    00:00 +27°C° 0 mm 3 mps 760 mmHg 84%
    01:00 +27°C° 0 mm 3 mps 759 mmHg 84%
    02:00 +27°C° 0 mm 3 mps 759 mmHg 85%
    03:00 +27°C° 0 mm 2 mps 759 mmHg 85%
    04:00 +27°C° 0 mm 2 mps 759 mmHg 85%
    05:00 +26°C° 0 mm 2 mps 759 mmHg 85%
    06:00 +27°C° 0 mm 2 mps 760 mmHg 79%
    07:00 +28°C° 0 mm 2 mps 760 mmHg 73%
    08:00 +29°C° 0 mm 3 mps 761 mmHg 67%
    09:00 +30°C° 0 mm 3 mps 761 mmHg 62%
    10:00 +31°C° 0 mm 3 mps 761 mmHg 56%
    11:00 +34°C° 0 mm 4 mps 761 mmHg 51%
    12:00 +34°C° 0 mm 4 mps 760 mmHg 50%
    13:00 +34°C° 0 mm 4 mps 759 mmHg 49%
    14:00 +34°C° 0 mm 4 mps 759 mmHg 48%
    15:00 +33°C° 0 mm 4 mps 759 mmHg 53%
    16:00 +32°C° 0 mm 4 mps 759 mmHg 57%
    17:00 +30°C° 0 mm 4 mps 759 mmHg 62%
    18:00 +29°C° 0 mm 3 mps 759 mmHg 66%
    19:00 +28°C° 0 mm 3 mps 760 mmHg 71%
    20:00 +28°C° 0 mm 3 mps 761 mmHg 75%
    21:00 +27°C° 0 mm 3 mps 761 mmHg 77%
    22:00 +27°C° 0 mm 2 mps 761 mmHg 78%
    23:00 +27°C° 0 mm 2 mps 761 mmHg 80%

    21 Febrero, Jueves

    Tiempo Temperatura Precipitaciones Viento Presión Humedad
    00:00 +26°C° 0 mm 2 mps 761 mmHg 81%
    01:00 +26°C° 0 mm 2 mps 760 mmHg 83%
    02:00 +26°C° 0 mm 1 mps 760 mmHg 84%
    03:00 +26°C° 0 mm 1 mps 760 mmHg 85%
    04:00 +25°C° 0 mm 1 mps 760 mmHg 86%
    05:00 +25°C° 0 mm 1 mps 760 mmHg 87%
    06:00 +26°C° 0 mm 1 mps 761 mmHg 82%
    07:00 +27°C° 0 mm 2 mps 761 mmHg 78%
    08:00 +28°C° 0 mm 2 mps 762 mmHg 73%
    09:00 +29°C° 0 mm 2 mps 762 mmHg 66%
    10:00 +31°C° 0 mm 3 mps 762 mmHg 58%
    11:00 +33°C° 0 mm 3 mps 762 mmHg 51%
    12:00 +34°C° 0 mm 4 mps 761 mmHg 49%
    13:00 +34°C° 0 mm 4 mps 760 mmHg 48%
    14:00 +34°C° 0 mm 4 mps 759 mmHg 46%
    15:00 +33°C° 0 mm 4 mps 759 mmHg 51%
    16:00 +32°C° 0 mm 4 mps 759 mmHg 55%
    17:00 +30°C° 0 mm 4 mps 759 mmHg 59%
    18:00 +29°C° 0 mm 3 mps 760 mmHg 64%
    19:00 +28°C° 0 mm 3 mps 760 mmHg 69%
    20:00 +27°C° 0 mm 3 mps 761 mmHg 74%
    21:00 +27°C° 0 mm 2 mps 761 mmHg 76%
    22:00 +26°C° 0 mm 2 mps 761 mmHg 78%
    23:00 +26°C° 0 mm 1 mps 761 mmHg 79%

    22 Febrero, Viernes

    Tiempo Temperatura Precipitaciones Viento Presión Humedad
    00:00 +26°C° 0 mm 1 mps 760 mmHg 81%
    01:00 +25°C° 0 mm 1 mps 759 mmHg 83%
    02:00 +25°C° 0 mm 1 mps 759 mmHg 84%
    03:00 +25°C° 0 mm 1 mps 759 mmHg 85%
    04:00 +24°C° 0 mm 1 mps 759 mmHg 86%
    05:00 +24°C° 0 mm 1 mps 759 mmHg 87%
    06:00 +25°C° 0 mm 1 mps 760 mmHg 81%
    07:00 +26°C° 0 mm 1 mps 760 mmHg 75%
    08:00 +27°C° 0 mm 2 mps 761 mmHg 69%
    09:00 +29°C° 0 mm 2 mps 761 mmHg 60%
    10:00 +31°C° 0 mm 2 mps 761 mmHg 50%
    11:00 +34°C° 0 mm 2 mps 760 mmHg 41%
    12:00 +34°C° 0 mm 2 mps 759 mmHg 38%
    13:00 +35°C° 0 mm 3 mps 759 mmHg 35%
    14:00 +36°C° 0 mm 3 mps 758 mmHg 33%
    15:00 +35°C° 0 mm 3 mps 758 mmHg 36%
    16:00 +34°C° 0 mm 3 mps 758 mmHg 40%
    17:00 +33°C° 0 mm 3 mps 758 mmHg 44%
    18:00 +30°C° 0 mm 3 mps 758 mmHg 50%
    19:00 +29°C° 0 mm 2 mps 759 mmHg 57%
    20:00 +27°C° 0 mm 2 mps 759 mmHg 64%
    21:00 +27°C° 0 mm 2 mps 759 mmHg 66%
    22:00 +26°C° 0 mm 1 mps 759 mmHg 69%
    23:00 +26°C° 0 mm 1 mps 759 mmHg 71%
    Mostrar más